Regional Weather Roundup
Issued by NWS Midland/Odessa, TX

Home | Current Version | Previous Version | Text Only | Print | Product List | Glossary On
Versions: 1 2 3 4 5 6 7 8 9 10 11 12 13 14 15 16 17 18 19 20 21 22 23 24 25 26 27 28 29 30 31 32 33 34 35 36 37 38 39 40 41 42 43 44 45 46 47 48 49 50
636
ASUS44 KMAF 280901
RWRMAF
MIDLAND AREA WEATHER ROUNDUP
NATIONAL WEATHER SERVICE MIDLAND TX
400 AM CDT SUN AUG 28 2016

...IN SOUTHWEST TEXAS AND SOUTHEAST NEW MEXICO...

CITY           SKY/WX    TMP DP  RH WIND       PRES   REMARKS
ALPINE         PTCLDY    66  59  78 SW5       30.20S
ANDREWS        NOT AVBL
ARTESIA        CLOUDY    66  64  94 N7        30.13R
BIG SPRING     CLEAR     73  68  85 SE7       30.09S
CARLSBAD       MOCLDY    70  62  76 N6        30.09R
DRYDEN           N/A     74  64  71 CALM      30.03S
FORT STOCKTON  CLEAR     70  62  76 S12       30.06S
GUAD PASS      CLOUDY    64  54  69 SW14      30.22S
HOBBS          PTCLDY    66  66 100 CALM      30.15R
MARFA          PTCLDY   N/A N/A N/A N3        30.18F
MIDLAND AIRPK  CLOUDY    73  63  69 S6        30.08S
MIDLAND INTL   CLEAR     72  63  73 SE6       30.07F
ODESSA         PTCLDY    72  63  73 SE6       30.09S
PECOS          CLEAR     71  65  80 E7        30.03F
PRESIDIO       NOT AVBL
SEMINOLE       CLEAR     67  64  89 CALM      30.12S
SNYDER           N/A     70  67  90 S5        30.08S
WINK           CLEAR     71  64  78 E7        30.05R
$$
...OTHER STATIONS IN TEXAS...

CITY           SKY/WX    TMP DP  RH WIND       PRES   REMARKS
ABILENE        CLEAR     72  69  90 SE8       30.05F
AMARILLO       MOCLDY    67  62  84 S5        30.15S
AUSTIN         CLEAR     72  70  93 CALM      29.98F
BROWNSVILLE    CLEAR     77  75  93 CALM      29.92F
CORPUS CHRISTI MOCLDY    78  75  90 NW3       29.94F
DALLAS FTW     PTCLDY    76  70  82 S6        30.01F
DEL RIO        CLOUDY    77  70  79 E6        29.97F
EL PASO        MOCLDY    69  62  78 CALM      30.11S
HOUSTON INT    LGT RAIN  75  73  93 NE9       29.96R
LUBBOCK        MOCLDY    69  65  86 SW6       30.12R
SAN ANGELO     CLEAR     71  66  84 CALM      30.05R
SAN ANTONIO    CLEAR     75  71  87 CALM      29.99F
WACO           CLEAR     73  71  93 CALM      30.01S
WICHITA FALLS  NOT AVBL
$$
...OTHER LOCATIONS IN NEW MEXICO...

CITY           SKY/WX    TMP DP  RH WIND       PRES   REMARKS
ALAMAGORDO     MOCLDY    63  59  88 CALM      30.14R
ALBUQUERQUE    CLOUDY    60  51  72 CALM      30.22R
CANNON AFB     CLOUDY    61  61 100 S7        30.16R
CLOVIS         CLOUDY    61  55  82 S10       30.16R
HOLLOMAN AFB   CLOUDY    65  59  81 VRB3      30.11S
ROSWELL        CLOUDY    65  61  87 SE12      30.13R
RUIDOSO          N/A     57  46  67 SW3       30.31R
SANTA FE       CLOUDY    53  49  86 N10       30.25S
TRUTH OR CONSE CLEAR     62  51  67 NW7       30.16R
TUCUMCARI      CLEAR     65  57  75 SW8       30.12S
$$




USA.gov is the U.S. government's official web portal to all federal, state and local government web resources and services.